contact:dominique.lefevre@mio.osupytheas.fr, maurice.libes@osupytheas.fr, didier.mallarino@osupytheas.fr
Project:EMSO http://www.emso-fr.org/EMSO-France
Depth: 2436.0 m
Title:EMSO Ligure Ouest : Data MII capteur AQUADOPP
Date,Latitude,Longitude,X_East,Y_North,Z_Up,Amplitude_X,Amplitude_Y,Amplitude_Z,Batterie,SoundSpeed,Heading,Pitch,Roll,Pressure,TIS,Speed,Direction
, degrees North, degrees East, m.s-1, m.s-1,m.s-1, 1, 1, 1, Volt, m.s-1, degree, degree, degree, dbar, degree_C, m.s-1, degree
2021-07-14T00:04:03,42.805,6.029,-0.026,-0.015,-0.004,101.0,103.0,101.0,13.3,1505.2,327.2,-0.7,1.8,2470.677,13.28,0.03,240.0
2021-07-14T00:07:03,42.805,6.029,-0.008,0.009,0.009,102.0,103.0,100.0,13.4,1505.2,328.8,-0.7,1.8,2470.63,13.28,0.012,318.4
2021-07-14T00:10:03,42.805,6.029,-0.022,-0.012,0.006,101.0,101.0,100.0,13.4,1505.2,329.2,-0.7,1.8,2470.61,13.29,0.025,241.4
2021-07-14T00:13:03,42.805,6.029,-0.023,-0.002,-0.005,101.0,103.0,99.0,13.3,1505.2,326.2,-0.7,1.8,2470.649,13.29,0.023,265.0
2021-07-14T00:16:03,42.805,6.029,-0.012,-0.013,-0.05,102.0,100.0,100.0,13.4,1505.2,328.6,-0.7,1.8,2470.597,13.29,0.017,222.7
2021-07-14T00:19:03,42.805,6.029,-0.02,-0.009,-0.003,101.0,102.0,100.0,13.3,1505.2,328.4,-0.7,1.8,2470.618,13.29,0.021,245.8
2021-07-14T00:22:03,42.805,6.029,-0.025,-0.016,-0.021,102.0,101.0,100.0,13.4,1505.2,327.9,-0.7,1.8,2470.588,13.29,0.029,237.4
2021-07-14T00:25:03,42.805,6.029,-0.036,0.0,-0.015,103.0,102.0,99.0,13.4,1505.2,326.8,-0.8,1.8,2470.585,13.29,0.036,270.0
2021-07-14T00:28:03,42.805,6.029,-0.004,-0.005,-0.008,101.0,102.0,100.0,13.4,1505.2,326.8,-0.7,1.8,2470.629,13.29,0.006,218.7
2021-07-14T00:31:03,42.805,6.029,-0.029,0.004,-0.002,102.0,103.0,100.0,13.3,1505.2,328.9,-0.8,1.8,2470.583,13.29,0.029,277.8
2021-07-14T00:34:03,42.805,6.029,0.019,0.016,0.01,101.0,101.0,100.0,13.4,1505.2,329.4,-0.8,1.8,2470.566,13.29,0.024,49.9
2021-07-14T00:37:03,42.805,6.029,-0.004,-0.001,-0.002,101.0,102.0,100.0,13.3,1505.2,326.4,-0.7,1.8,2470.633,13.29,0.004,256.0
2021-07-14T00:40:03,42.805,6.029,-0.03,-0.006,-0.017,101.0,101.0,102.0,13.4,1505.2,329.8,-0.8,1.8,2470.567,13.29,0.03,258.7
2021-07-14T00:43:03,42.805,6.029,-0.012,0.004,0.013,101.0,100.0,103.0,13.3,1505.2,326.0,-0.8,1.8,2470.534,13.29,0.012,288.4
2021-07-14T00:46:03,42.805,6.029,-0.008,-0.006,-0.017,102.0,101.0,100.0,13.4,1505.2,328.9,-0.7,1.8,2470.573,13.29,0.01,233.1
2021-07-14T00:49:03,42.805,6.029,-0.019,-0.008,-0.016,101.0,101.0,101.0,13.4,1505.2,327.5,-0.8,1.8,2470.586,13.29,0.02,247.2
2021-07-14T00:52:03,42.805,6.029,-0.012,0.002,-0.01,99.0,102.0,100.0,13.4,1505.2,330.0,-0.8,1.8,2470.596,13.29,0.012,279.5
2021-07-14T00:55:03,42.805,6.029,-0.027,-0.019,-0.001,103.0,102.0,99.0,13.4,1505.2,326.4,-0.8,1.8,2470.579,13.29,0.033,234.9
2021-07-14T00:58:03,42.805,6.029,-0.013,-0.018,-0.041,101.0,101.0,101.0,13.4,1505.2,326.6,-0.8,1.8,2470.541,13.29,0.022,215.8
2021-07-14T01:04:03,42.805,6.029,-0.035,-0.008,-0.007,100.0,102.0,101.0,13.4,1505.2,328.6,-0.7,1.8,2470.621,13.28,0.035,257.1
2021-07-14T01:07:03,42.805,6.029,-0.007,0.019,0.01,102.0,102.0,100.0,13.4,1505.2,330.2,-0.7,1.8,2470.577,13.29,0.02,339.8
2021-07-14T01:10:03,42.805,6.029,0.002,-0.012,-0.022,101.0,101.0,100.0,13.3,1505.2,325.7,-0.7,1.9,2470.601,13.29,0.012,170.5
2021-07-14T01:13:03,42.805,6.029,-0.022,-0.007,-0.009,101.0,103.0,101.0,13.3,1505.2,329.7,-0.8,1.8,2470.569,13.29,0.023,252.4
2021-07-14T01:16:03,42.805,6.029,-0.021,0.007,-0.027,102.0,100.0,100.0,13.4,1505.2,329.2,-0.7,1.8,2470.528,13.29,0.022,288.4
2021-07-14T01:19:03,42.805,6.029,-0.008,-0.005,-0.037,101.0,102.0,101.0,13.3,1505.2,328.2,-0.7,1.8,2470.526,13.29,0.009,238.0
2021-07-14T01:22:03,42.805,6.029,-0.021,0.003,-0.003,102.0,99.0,101.0,13.4,1505.2,326.4,-0.7,1.8,2470.535,13.29,0.021,278.1
2021-07-14T01:25:03,42.805,6.029,-0.02,-0.02,-0.015,101.0,103.0,100.0,13.4,1505.2,326.8,-0.8,1.8,2470.594,13.29,0.028,225.0
2021-07-14T01:28:03,42.805,6.029,-0.011,0.015,-0.002,101.0,101.0,100.0,13.4,1505.2,330.0,-0.7,1.8,2470.526,13.29,0.018,323.7
2021-07-14T01:31:03,42.805,6.029,-0.011,0.003,-0.02,101.0,101.0,100.0,13.4,1505.2,326.3,-0.8,1.8,2470.582,13.29,0.011,285.3
2021-07-14T01:34:03,42.805,6.029,-0.012,0.004,-0.013,100.0,101.0,102.0,13.3,1505.2,328.9,-0.8,1.8,2470.547,13.29,0.012,288.4
2021-07-14T01:37:03,42.805,6.029,-0.027,0.0,-0.02,103.0,100.0,101.0,13.4,1505.2,325.0,-0.8,1.8,2470.489,13.29,0.026,270.0
2021-07-14T01:40:03,42.805,6.029,-0.015,-0.008,-0.019,101.0,100.0,101.0,13.4,1505.2,329.1,-0.8,1.8,2470.527,13.29,0.017,241.9
2021-07-14T01:43:03,42.805,6.029,0.0,0.0,-0.005,107.0,101.0,100.0,13.4,1505.2,325.2,-0.8,1.8,2470.526,13.29,0.0,0.0
2021-07-14T01:46:03,42.805,6.029,-0.009,-0.007,-0.022,101.0,103.0,101.0,13.4,1505.2,326.6,-0.8,1.8,2470.519,13.29,0.011,232.1
2021-07-14T01:49:03,42.805,6.029,-0.02,-0.01,-0.048,101.0,103.0,101.0,13.4,1505.2,328.4,-0.7,1.8,2470.519,13.29,0.022,243.4
2021-07-14T01:52:03,42.805,6.029,-0.012,0.014,-0.007,101.0,101.0,100.0,13.4,1505.2,329.2,-0.7,1.8,2470.512,13.29,0.018,319.4
2021-07-14T01:55:03,42.805,6.029,-0.009,-0.002,-0.003,101.0,101.0,99.0,13.4,1505.2,328.9,-0.8,1.9,2470.584,13.29,0.009,257.5
2021-07-14T01:58:03,42.805,6.029,-0.024,-0.001,0.0,99.0,103.0,101.0,13.4,1505.2,330.1,-0.8,1.8,2470.522,13.29,0.024,267.6
2021-07-14T02:04:03,42.805,6.029,-0.013,0.007,0.0,100.0,102.0,100.0,13.4,1505.2,328.5,-0.7,1.8,2470.526,13.28,0.014,298.3
2021-07-14T02:07:03,42.805,6.029,-0.012,-0.01,0.001,101.0,100.0,101.0,13.4,1505.2,327.2,-0.7,1.8,2470.585,13.28,0.015,230.2
2021-07-14T02:10:03,42.805,6.029,-0.006,-0.001,-0.017,101.0,101.0,102.0,13.4,1505.2,325.5,-0.8,1.8,2470.55,13.29,0.006,260.5
2021-07-14T02:13:03,42.805,6.029,-0.003,-0.007,-0.006,102.0,102.0,100.0,13.4,1505.2,325.0,-0.8,1.8,2470.542,13.29,0.007,203.2
2021-07-14T02:16:03,42.805,6.029,-0.041,0.008,-0.002,102.0,101.0,100.0,13.3,1505.2,329.9,-0.7,1.8,2470.523,13.29,0.041,281.0
2021-07-14T02:19:03,42.805,6.029,-0.017,-0.011,-0.047,101.0,101.0,100.0,13.3,1505.2,327.1,-0.8,1.9,2470.528,13.29,0.02,237.1
2021-07-14T02:22:03,42.805,6.029,-0.015,0.003,-0.003,103.0,101.0,100.0,13.3,1505.2,325.4,-0.7,1.9,2470.494,13.29,0.015,281.3
2021-07-14T02:25:03,42.805,6.029,-0.015,0.005,-0.012,102.0,103.0,100.0,13.4,1505.2,327.2,-0.7,1.8,2470.514,13.29,0.015,288.4
2021-07-14T02:28:03,42.805,6.029,-0.018,-0.001,-0.016,102.0,101.0,100.0,13.4,1505.2,329.1,-0.7,1.8,2470.508,13.29,0.018,266.8
2021-07-14T02:31:03,42.805,6.029,0.001,0.01,-0.012,102.0,102.0,100.0,13.4,1505.2,328.2,-0.7,1.8,2470.475,13.29,0.01,5.7
2021-07-14T02:34:03,42.805,6.029,-0.019,0.01,-0.018,101.0,101.0,101.0,13.3,1505.2,329.3,-0.7,1.8,2470.508,13.29,0.021,297.8
2021-07-14T02:37:03,42.805,6.029,-0.024,0.004,-0.018,101.0,102.0,100.0,13.4,1505.2,328.4,-0.7,1.8,2470.516,13.29,0.024,279.5
2021-07-14T02:40:03,42.805,6.029,-0.022,-0.001,0.006,101.0,103.0,100.0,13.4,1505.2,329.9,-0.8,1.8,2470.494,13.29,0.022,267.4
2021-07-14T02:43:03,42.805,6.029,-0.024,-0.005,0.002,99.0,102.0,101.0,13.4,1505.2,325.9,-0.7,1.8,2470.488,13.29,0.024,258.2
2021-07-14T02:46:03,42.805,6.029,-0.029,-0.014,0.0,102.0,102.0,99.0,13.3,1505.2,326.5,-0.7,1.8,2470.534,13.29,0.032,244.2
2021-07-14T02:49:03,42.805,6.029,-0.019,0.011,-0.012,101.0,102.0,101.0,13.4,1505.2,325.9,-0.8,1.8,2470.484,13.29,0.021,300.1
2021-07-14T02:52:03,42.805,6.029,0.004,-0.012,-0.035,100.0,103.0,99.0,13.4,1505.2,330.4,-0.7,1.8,2470.522,13.29,0.012,161.6
2021-07-14T02:55:03,42.805,6.029,-0.026,-0.005,0.007,102.0,103.0,99.0,13.4,1505.2,329.0,-0.8,1.8,2470.508,13.29,0.026,259.1
2021-07-14T02:58:03,42.805,6.029,-0.007,0.011,0.008,102.0,103.0,101.0,13.4,1505.2,325.5,-0.7,1.8,2470.453,13.29,0.013,327.5
2021-07-14T03:04:03,42.805,6.029,-0.018,-0.008,-0.028,101.0,102.0,100.0,13.4,1505.2,325.2,-0.8,1.8,2470.545,13.29,0.019,246.0
2021-07-14T03:07:03,42.805,6.029,-0.022,-0.006,-0.022,100.0,103.0,100.0,13.4,1505.2,330.2,-0.7,1.8,2470.483,13.29,0.022,254.7
2021-07-14T03:10:03,42.805,6.029,-0.003,0.003,-0.005,100.0,102.0,100.0,13.4,1505.2,328.1,-0.7,1.8,2470.502,13.29,0.004,315.0
2021-07-14T03:13:03,42.805,6.029,-0.004,0.002,0.007,102.0,102.0,100.0,13.3,1505.2,327.4,-0.8,1.8,2470.514,13.29,0.004,296.6
2021-07-14T03:16:03,42.805,6.029,-0.019,-0.002,0.013,100.0,102.0,100.0,13.3,1505.2,324.6,-0.8,1.8,2470.48,13.29,0.019,264.0
2021-07-14T03:19:03,42.805,6.029,-0.02,0.004,-0.01,99.0,105.0,102.0,13.4,1505.2,329.9,-0.8,1.8,2470.499,13.29,0.02,281.3
2021-07-14T03:22:03,42.805,6.029,-0.003,-0.006,-0.017,101.0,102.0,100.0,13.3,1505.2,327.7,-0.7,1.8,2470.429,13.29,0.006,206.6
2021-07-14T03:25:03,42.805,6.029,-0.017,-0.001,-0.006,101.0,101.0,100.0,13.4,1505.2,325.5,-0.8,1.8,2470.468,13.29,0.017,266.6
2021-07-14T03:28:03,42.805,6.029,-0.008,-0.002,0.026,100.0,102.0,99.0,13.4,1505.2,327.0,-0.7,1.9,2470.472,13.29,0.008,256.0
2021-07-14T03:31:03,42.805,6.029,-0.01,-0.001,-0.001,102.0,102.0,101.0,13.3,1505.2,329.7,-0.8,1.8,2470.428,13.29,0.01,264.3
2021-07-14T03:34:03,42.805,6.029,-0.013,0.01,-0.019,101.0,102.0,100.0,13.4,1505.2,328.5,-0.8,1.8,2470.491,13.29,0.016,307.6
2021-07-14T03:37:03,42.805,6.029,0.0,-0.008,-0.02,102.0,102.0,100.0,13.4,1505.2,329.3,-0.8,1.8,2470.447,13.29,0.008,180.0
2021-07-14T03:40:03,42.805,6.029,-0.021,-0.015,-0.007,101.0,100.0,100.0,13.4,1505.2,325.6,-0.7,1.8,2470.435,13.29,0.025,234.5
2021-07-14T03:43:03,42.805,6.029,0.019,-0.008,0.003,100.0,101.0,100.0,13.3,1505.2,330.2,-0.7,1.8,2470.467,13.29,0.02,112.8
2021-07-14T03:46:03,42.805,6.029,-0.001,-0.008,0.004,102.0,102.0,100.0,13.4,1505.2,328.2,-0.8,1.8,2470.48,13.29,0.008,187.1
2021-07-14T03:49:03,42.805,6.029,0.007,-0.002,0.006,104.0,101.0,100.0,13.4,1505.2,325.9,-0.7,1.9,2470.446,13.29,0.007,105.9
2021-07-14T03:52:03,42.805,6.029,-0.028,-0.011,-0.037,101.0,101.0,100.0,13.4,1505.2,330.7,-0.8,1.8,2470.458,13.29,0.03,248.6
2021-07-14T03:55:03,42.805,6.029,-0.016,-0.011,-0.006,103.0,102.0,100.0,13.3,1505.2,327.3,-0.8,1.8,2470.453,13.29,0.019,235.5
2021-07-14T03:58:03,42.805,6.029,-0.019,-0.006,-0.019,102.0,102.0,101.0,13.3,1505.2,328.3,-0.7,1.8,2470.469,13.29,0.019,252.5
2021-07-14T04:04:03,42.805,6.029,-0.004,0.003,-0.008,102.0,102.0,100.0,13.4,1505.2,324.8,-0.8,1.9,2470.482,13.29,0.005,306.9
2021-07-14T04:07:03,42.805,6.029,-0.04,0.022,-0.008,101.0,102.0,100.0,13.3,1505.2,326.3,-0.7,1.8,2470.473,13.29,0.045,298.8
2021-07-14T04:10:03,42.805,6.029,-0.003,-0.001,0.0,102.0,101.0,100.0,13.4,1505.2,325.2,-0.8,1.8,2470.469,13.29,0.003,251.6
2021-07-14T04:13:03,42.805,6.029,-0.007,-0.007,-0.027,102.0,101.0,102.0,13.3,1505.2,326.7,-0.7,1.8,2470.46,13.29,0.009,225.0
2021-07-14T04:16:03,42.805,6.029,-0.011,-0.003,-0.001,103.0,100.0,100.0,13.4,1505.2,325.6,-0.7,1.8,2470.47,13.29,0.011,254.7
2021-07-14T04:19:03,42.805,6.029,-0.014,-0.012,-0.027,103.0,101.0,100.0,13.4,1505.2,326.4,-0.8,1.8,2470.481,13.29,0.018,229.4
2021-07-14T04:22:03,42.805,6.029,-0.012,0.003,-0.007,101.0,102.0,101.0,13.3,1505.2,326.2,-0.8,1.8,2470.448,13.29,0.012,284.0
2021-07-14T04:25:03,42.805,6.029,0.031,-0.005,0.012,102.0,101.0,100.0,13.4,1505.2,326.4,-0.8,1.8,2470.435,13.29,0.031,99.2
2021-07-14T04:28:03,42.805,6.029,0.002,-0.023,-0.012,101.0,103.0,100.0,13.4,1505.2,327.1,-0.8,1.8,2470.416,13.29,0.023,175.0
2021-07-14T04:31:03,42.805,6.029,-0.003,-0.011,-0.031,102.0,102.0,100.0,13.3,1505.2,326.1,-0.7,1.8,2470.471,13.29,0.011,195.3
2021-07-14T04:34:03,42.805,6.029,0.001,0.014,0.04,100.0,102.0,103.0,13.4,1505.2,329.4,-0.8,1.8,2470.447,13.29,0.014,4.1
2021-07-14T04:37:03,42.805,6.029,-0.004,0.009,-0.025,100.0,102.0,101.0,13.4,1505.2,328.9,-0.7,1.8,2470.445,13.29,0.009,336.0
2021-07-14T04:40:03,42.805,6.029,0.0,-0.002,-0.015,100.0,101.0,100.0,13.4,1505.2,330.1,-0.8,1.8,2470.425,13.29,0.002,180.0
2021-07-14T04:43:03,42.805,6.029,-0.002,-0.01,-0.026,102.0,101.0,100.0,13.4,1505.2,326.5,-0.7,1.8,2470.45,13.29,0.01,191.3
2021-07-14T04:46:03,42.805,6.029,-0.009,-0.002,-0.025,100.0,102.0,102.0,13.4,1505.2,326.0,-0.8,1.8,2470.426,13.29,0.009,257.5
2021-07-14T04:49:03,42.805,6.029,0.0,-0.007,0.011,99.0,104.0,100.0,13.3,1505.2,327.2,-0.8,1.9,2470.489,13.29,0.007,180.0
2021-07-14T04:52:03,42.805,6.029,-0.009,0.006,0.007,99.0,102.0,100.0,13.3,1505.2,326.0,-0.7,1.9,2470.442,13.29,0.01,303.7
2021-07-14T04:55:03,42.805,6.029,-0.025,0.0,-0.021,101.0,101.0,101.0,13.4,1505.2,327.6,-0.8,1.9,2470.458,13.29,0.025,270.0
2021-07-14T04:58:03,42.805,6.029,-0.004,-0.008,-0.023,103.0,103.0,100.0,13.4,1505.2,328.6,-0.8,1.8,2470.465,13.29,0.008,206.6
2021-07-14T05:04:03,42.805,6.029,0.0,-0.023,-0.003,100.0,104.0,100.0,13.3,1505.2,330.6,-0.7,1.9,2470.496,13.29,0.023,180.0
2021-07-14T05:07:03,42.805,6.029,-0.016,0.0,0.0,102.0,102.0,99.0,13.4,1505.2,328.7,-0.7,1.8,2470.48,13.29,0.016,270.0
2021-07-14T05:10:03,42.805,6.029,-0.012,0.0,-0.007,102.0,100.0,100.0,13.4,1505.2,329.7,-0.7,1.8,2470.444,13.29,0.012,270.0
2021-07-14T05:13:03,42.805,6.029,-0.005,0.008,-0.016,101.0,105.0,100.0,13.3,1505.2,328.1,-0.7,1.8,2470.426,13.29,0.009,328.0
2021-07-14T05:16:03,42.805,6.029,-0.001,-0.003,-0.005,102.0,102.0,101.0,13.3,1505.2,327.4,-0.8,1.8,2470.494,13.29,0.003,198.4
2021-07-14T05:19:03,42.805,6.029,-0.008,0.01,-0.023,102.0,101.0,100.0,13.4,1505.2,329.0,-0.8,1.8,2470.449,13.29,0.012,321.3
2021-07-14T05:22:03,42.805,6.029,0.004,-0.02,-0.017,99.0,102.0,99.0,13.3,1505.2,326.8,-0.7,1.8,2470.441,13.29,0.02,168.7
2021-07-14T05:25:03,42.805,6.029,-0.009,0.0,-0.023,99.0,102.0,100.0,13.4,1505.2,327.1,-0.7,1.9,2470.478,13.29,0.009,270.0
2021-07-14T05:28:03,42.805,6.029,0.005,-0.008,-0.023,99.0,101.0,99.0,13.4,1505.2,326.8,-0.8,1.8,2470.445,13.29,0.009,148.0
2021-07-14T05:31:03,42.805,6.029,0.006,-0.02,-0.027,99.0,102.0,99.0,13.3,1505.2,326.7,-0.8,1.8,2470.45,13.29,0.02,163.3
2021-07-14T05:34:03,42.805,6.029,-0.024,-0.012,-0.026,102.0,103.0,99.0,13.4,1505.2,326.9,-0.8,1.8,2470.459,13.29,0.026,243.4
2021-07-14T05:37:03,42.805,6.029,-0.012,-0.007,-0.028,102.0,103.0,101.0,13.4,1505.2,327.8,-0.8,1.8,2470.414,13.29,0.013,239.7
2021-07-14T05:40:03,42.805,6.029,0.013,-0.011,-0.018,100.0,103.0,100.0,13.4,1505.2,327.4,-0.7,1.8,2470.466,13.29,0.017,130.2
2021-07-14T05:43:03,42.805,6.029,0.0,-0.007,0.01,101.0,104.0,100.0,13.3,1505.2,326.7,-0.8,1.8,2470.418,13.29,0.007,180.0
2021-07-14T05:46:03,42.805,6.029,0.012,0.016,-0.005,101.0,101.0,100.0,13.4,1505.2,326.4,-0.7,1.8,2470.456,13.29,0.02,36.9
2021-07-14T05:49:03,42.805,6.029,0.001,-0.004,-0.037,103.0,101.0,101.0,13.3,1505.2,327.7,-0.7,1.8,2470.462,13.29,0.004,166.0
2021-07-14T05:52:03,42.805,6.029,-0.007,-0.002,-0.008,103.0,101.0,100.0,13.4,1505.2,325.8,-0.8,1.8,2470.419,13.29,0.007,254.1
2021-07-14T05:55:03,42.805,6.029,-0.009,-0.011,0.009,101.0,100.0,101.0,13.4,1505.2,326.6,-0.7,1.8,2470.4,13.29,0.014,219.3
2021-07-14T05:58:03,42.805,6.029,-0.007,0.007,-0.016,101.0,103.0,100.0,13.4,1505.2,325.5,-0.8,1.9,2470.463,13.29,0.009,315.0
2021-07-14T06:04:03,42.805,6.029,0.006,-0.006,-0.01,104.0,100.0,100.0,13.3,1505.2,325.5,-0.8,1.8,2470.457,13.29,0.008,135.0
2021-07-14T06:07:03,42.805,6.029,-0.006,0.0,-0.007,100.0,102.0,100.0,13.3,1505.2,326.2,-0.7,1.8,2470.45,13.29,0.006,270.0
2021-07-14T06:10:03,42.805,6.029,0.001,-0.015,-0.024,102.0,100.0,100.0,13.4,1505.2,328.3,-0.8,1.8,2470.465,13.29,0.015,176.2
2021-07-14T06:13:03,42.805,6.029,-0.009,-0.015,0.007,102.0,102.0,100.0,13.4,1505.2,328.1,-0.7,1.8,2470.471,13.29,0.017,211.0
2021-07-14T06:16:03,42.805,6.029,0.007,0.011,0.006,100.0,101.0,102.0,13.4,1505.2,330.1,-0.7,1.8,2470.448,13.29,0.013,32.5
2021-07-14T06:19:03,42.805,6.029,0.006,-0.014,-0.006,102.0,102.0,100.0,13.4,1505.2,326.0,-0.7,1.8,2470.472,13.29,0.015,156.8
2021-07-14T06:22:03,42.805,6.029,0.001,-0.005,0.004,100.0,105.0,100.0,13.4,1505.2,326.5,-0.7,1.8,2470.475,13.29,0.005,168.7
2021-07-14T06:25:03,42.805,6.029,0.005,0.006,0.022,102.0,101.0,101.0,13.3,1505.2,327.0,-0.7,1.8,2470.447,13.29,0.007,39.8
2021-07-14T06:28:03,42.805,6.029,0.0,-0.009,-0.01,100.0,101.0,99.0,13.4,1505.2,329.7,-0.7,1.8,2470.481,13.29,0.009,180.0
2021-07-14T06:31:03,42.805,6.029,-0.002,-0.009,-0.032,99.0,102.0,101.0,13.4,1505.2,327.3,-0.7,1.8,2470.505,13.29,0.009,192.5
2021-07-14T06:34:03,42.805,6.029,0.005,-0.001,0.018,102.0,102.0,100.0,13.4,1505.2,324.6,-0.8,1.8,2470.472,13.29,0.005,101.3
2021-07-14T06:37:03,42.805,6.029,-0.001,-0.007,-0.014,101.0,104.0,100.0,13.4,1505.2,327.4,-0.8,1.8,2470.479,13.29,0.007,188.1
2021-07-14T06:40:03,42.805,6.029,-0.015,-0.013,-0.02,99.0,102.0,101.0,13.4,1505.2,327.2,-0.8,1.8,2470.481,13.29,0.019,229.1
2021-07-14T06:43:03,42.805,6.029,0.005,-0.005,-0.013,101.0,101.0,100.0,13.3,1505.2,327.3,-0.8,1.8,2470.468,13.29,0.007,135.0
2021-07-14T06:46:03,42.805,6.029,-0.011,-0.007,-0.027,101.0,103.0,100.0,13.3,1505.2,328.6,-0.8,1.8,2470.463,13.29,0.013,237.5
2021-07-14T06:49:03,42.805,6.029,-0.012,-0.005,0.0,100.0,102.0,101.0,13.4,1505.2,327.9,-0.8,1.8,2470.471,13.29,0.013,247.4
2021-07-14T06:52:03,42.805,6.029,0.0,-0.004,-0.023,101.0,102.0,100.0,13.3,1505.2,330.1,-0.7,1.8,2470.458,13.29,0.004,180.0
2021-07-14T06:55:03,42.805,6.029,0.013,-0.013,-0.022,101.0,101.0,100.0,13.4,1505.2,325.6,-0.8,1.8,2470.474,13.29,0.018,135.0
2021-07-14T06:58:03,42.805,6.029,-0.007,-0.01,-0.007,101.0,102.0,100.0,13.4,1505.2,325.0,-0.8,1.8,2470.489,13.29,0.012,215.0
2021-07-14T07:04:03,42.805,6.029,0.0,-0.016,-0.03,102.0,103.0,99.0,13.4,1505.2,327.5,-0.8,1.8,2470.545,13.28,0.016,180.0
2021-07-14T07:07:03,42.805,6.029,0.0,-0.024,-0.002,100.0,102.0,100.0,13.4,1505.2,329.5,-0.8,1.8,2470.513,13.28,0.024,180.0
2021-07-14T07:10:03,42.805,6.029,-0.009,-0.016,0.0,100.0,101.0,100.0,13.4,1505.2,325.2,-0.8,1.8,2470.508,13.28,0.018,209.4
2021-07-14T07:13:03,42.805,6.029,-0.008,-0.009,-0.016,101.0,102.0,101.0,13.4,1505.2,329.9,-0.7,1.8,2470.466,13.28,0.012,221.6
2021-07-14T07:16:03,42.805,6.029,-0.011,0.007,-0.007,101.0,103.0,99.0,13.3,1505.2,328.4,-0.7,1.8,2470.486,13.28,0.013,302.5
2021-07-14T07:19:03,42.805,6.029,0.017,0.003,0.007,101.0,103.0,101.0,13.4,1505.2,327.2,-0.7,1.9,2470.49,13.28,0.017,80.0
2021-07-14T07:22:03,42.805,6.029,-0.001,-0.005,-0.014,106.0,102.0,100.0,13.4,1505.2,326.7,-0.8,1.9,2470.519,13.28,0.005,191.3
2021-07-14T07:25:03,42.805,6.029,-0.015,-0.01,-0.018,102.0,102.0,102.0,13.4,1505.2,328.8,-0.8,1.8,2470.476,13.28,0.018,236.3
2021-07-14T07:28:03,42.805,6.029,0.011,-0.015,-0.026,99.0,101.0,100.0,13.4,1505.2,328.2,-0.8,1.8,2470.453,13.28,0.018,143.7
2021-07-14T07:31:03,42.805,6.029,-0.021,0.004,0.012,101.0,100.0,101.0,13.3,1505.2,328.3,-0.8,1.8,2470.502,13.28,0.021,280.8
2021-07-14T07:34:03,42.805,6.029,-0.001,-0.012,-0.016,100.0,102.0,101.0,13.4,1505.2,329.9,-0.8,1.8,2470.478,13.28,0.012,184.8
2021-07-14T07:37:03,42.805,6.029,-0.005,-0.013,-0.003,100.0,101.0,100.0,13.4,1505.2,328.5,-0.8,1.8,2470.503,13.29,0.013,201.0
2021-07-14T07:40:03,42.805,6.029,0.0,-0.011,0.012,100.0,102.0,100.0,13.4,1505.2,329.4,-0.7,1.8,2470.473,13.28,0.011,180.0
2021-07-14T07:43:03,42.805,6.029,-0.004,-0.005,-0.042,103.0,100.0,100.0,13.4,1505.2,324.4,-0.7,1.8,2470.498,13.28,0.006,218.7
2021-07-14T07:46:03,42.805,6.029,0.002,-0.013,-0.018,102.0,102.0,100.0,13.4,1505.2,329.4,-0.7,1.8,2470.514,13.28,0.013,171.3
2021-07-14T07:49:03,42.805,6.029,0.002,-0.016,-0.012,102.0,100.0,101.0,13.4,1505.2,327.1,-0.8,1.8,2470.495,13.28,0.016,172.9
2021-07-14T07:52:03,42.805,6.029,0.004,-0.007,-0.013,104.0,101.0,100.0,13.3,1505.2,324.9,-0.8,1.8,2470.484,13.29,0.008,150.3
2021-07-14T07:55:03,42.805,6.029,-0.005,-0.003,0.007,100.0,103.0,99.0,13.4,1505.2,329.7,-0.8,1.8,2470.519,13.28,0.005,239.0
2021-07-14T07:58:03,42.805,6.029,0.0,-0.014,-0.014,100.0,102.0,100.0,13.4,1505.2,327.9,-0.8,1.8,2470.531,13.28,0.014,180.0
2021-07-14T08:04:03,42.805,6.029,-0.007,0.003,-0.001,102.0,102.0,100.0,13.3,1505.2,328.8,-0.7,1.8,2470.539,13.28,0.007,293.2
2021-07-14T08:07:03,42.805,6.029,0.0,-0.006,0.0,103.0,101.0,100.0,13.4,1505.2,327.8,-0.8,1.8,2470.541,13.28,0.006,180.0
2021-07-14T08:10:03,42.805,6.029,0.017,-0.016,-0.027,101.0,102.0,99.0,13.3,1505.2,324.6,-0.8,1.8,2470.533,13.28,0.023,133.3
2021-07-14T08:13:03,42.805,6.029,-0.013,-0.014,-0.039,104.0,101.0,100.0,13.4,1505.2,330.5,-0.8,1.8,2470.535,13.28,0.019,222.9
2021-07-14T08:16:03,42.805,6.029,0.005,-0.017,-0.022,100.0,103.0,99.0,13.4,1505.2,326.8,-0.8,1.8,2470.581,13.28,0.017,163.6
2021-07-14T08:19:03,42.805,6.029,-0.002,0.002,0.009,103.0,103.0,100.0,13.3,1505.2,326.1,-0.8,1.9,2470.538,13.28,0.002,315.0
2021-07-14T08:22:03,42.805,6.029,0.005,0.009,-0.006,101.0,101.0,101.0,13.4,1505.2,328.5,-0.8,1.8,2470.576,13.28,0.01,29.1
2021-07-14T08:25:03,42.805,6.029,0.002,0.001,-0.002,102.0,101.0,100.0,13.4,1505.2,325.7,-0.7,1.8,2470.585,13.28,0.002,63.4
2021-07-14T08:28:03,42.805,6.029,0.004,-0.007,-0.036,102.0,103.0,99.0,13.3,1505.2,325.7,-0.7,1.8,2470.572,13.28,0.008,150.3
2021-07-14T08:31:03,42.805,6.029,-0.013,-0.006,-0.023,102.0,102.0,100.0,13.4,1505.2,326.2,-0.8,1.9,2470.553,13.28,0.014,245.2
2021-07-14T08:34:03,42.805,6.029,-0.011,-0.005,-0.02,101.0,100.0,101.0,13.4,1505.2,326.1,-0.8,1.8,2470.547,13.28,0.012,245.6
2021-07-14T08:37:03,42.805,6.029,0.007,-0.012,-0.022,101.0,101.0,100.0,13.3,1505.2,327.7,-0.7,1.9,2470.55,13.28,0.013,149.7
2021-07-14T08:40:03,42.805,6.029,-0.004,-0.014,0.006,100.0,101.0,100.0,13.4,1505.2,324.7,-0.8,1.8,2470.577,13.28,0.014,195.9
2021-07-14T08:43:03,42.805,6.029,0.01,-0.001,-0.004,103.0,101.0,99.0,13.4,1505.2,326.8,-0.8,1.8,2470.542,13.29,0.01,95.7
2021-07-14T08:46:03,42.805,6.029,-0.011,-0.033,-0.008,103.0,101.0,100.0,13.3,1505.2,326.9,-0.7,1.8,2470.518,13.29,0.034,198.4
2021-07-14T08:49:03,42.805,6.029,0.001,-0.003,-0.013,100.0,102.0,100.0,13.4,1505.2,326.4,-0.7,1.8,2470.549,13.28,0.003,161.6
2021-07-14T08:52:03,42.805,6.029,-0.011,-0.026,-0.046,100.0,101.0,100.0,13.4,1505.2,326.1,-0.7,1.8,2470.546,13.28,0.028,202.9
2021-07-14T08:55:03,42.805,6.029,0.008,-0.012,0.013,102.0,102.0,99.0,13.3,1505.2,329.4,-0.8,1.9,2470.545,13.28,0.014,146.3
2021-07-14T08:58:03,42.805,6.029,-0.02,-0.008,0.004,101.0,101.0,99.0,13.3,1505.2,330.0,-0.8,1.8,2470.57,13.28,0.021,248.2
2021-07-14T09:04:03,42.805,6.029,-0.001,-0.016,-0.02,100.0,102.0,100.0,13.4,1505.2,326.5,-0.7,1.8,2470.554,13.28,0.016,183.6
2021-07-14T09:07:03,42.805,6.029,0.008,-0.014,-0.01,102.0,100.0,100.0,13.3,1505.2,325.5,-0.8,1.8,2470.573,13.28,0.016,150.3
2021-07-14T09:10:03,42.805,6.029,0.019,-0.001,-0.004,100.0,102.0,100.0,13.4,1505.2,327.2,-0.8,1.8,2470.58,13.28,0.019,93.0
2021-07-14T09:13:03,42.805,6.029,-0.006,-0.01,0.018,102.0,102.0,99.0,13.4,1505.2,328.2,-0.7,1.8,2470.556,13.28,0.011,211.0
2021-07-14T09:16:03,42.805,6.029,-0.004,-0.015,-0.039,102.0,102.0,100.0,13.3,1505.2,329.1,-0.7,1.8,2470.566,13.28,0.015,194.9
2021-07-14T09:19:03,42.805,6.029,0.013,-0.015,-0.024,103.0,103.0,101.0,13.3,1505.2,327.7,-0.8,1.9,2470.548,13.28,0.019,139.1
2021-07-14T09:22:03,42.805,6.029,0.009,-0.027,0.0,101.0,103.0,100.0,13.4,1505.2,330.3,-0.7,1.8,2470.557,13.28,0.028,161.6
2021-07-14T09:25:03,42.805,6.029,-0.002,-0.009,-0.026,102.0,99.0,100.0,13.4,1505.2,327.7,-0.7,1.8,2470.538,13.28,0.009,192.5
2021-07-14T09:28:03,42.805,6.029,0.004,-0.014,0.009,100.0,103.0,100.0,13.4,1505.2,329.8,-0.7,1.8,2470.549,13.28,0.014,164.1
2021-07-14T09:31:03,42.805,6.029,0.002,-0.014,-0.001,100.0,102.0,99.0,13.4,1505.2,325.3,-0.7,1.8,2470.559,13.28,0.014,171.9
2021-07-14T09:34:03,42.805,6.029,-0.005,-0.015,-0.029,101.0,100.0,100.0,13.4,1505.2,327.8,-0.8,1.8,2470.535,13.28,0.015,198.4
2021-07-14T09:37:03,42.805,6.029,-0.018,-0.018,-0.024,101.0,102.0,100.0,13.4,1505.2,327.7,-0.8,1.8,2470.537,13.28,0.025,225.0
2021-07-14T09:40:03,42.805,6.029,0.003,-0.018,-0.011,102.0,101.0,100.0,13.4,1505.2,325.6,-0.8,1.8,2470.546,13.28,0.018,170.5
2021-07-14T09:43:03,42.805,6.029,-0.018,-0.009,-0.019,102.0,101.0,100.0,13.4,1505.2,328.8,-0.7,1.8,2470.521,13.28,0.02,243.4
2021-07-14T09:46:03,42.805,6.029,0.0,-0.018,-0.038,102.0,101.0,102.0,13.3,1505.2,324.8,-0.8,1.8,2470.554,13.28,0.018,180.0
2021-07-14T09:49:03,42.805,6.029,-0.012,0.01,-0.01,104.0,101.0,99.0,13.4,1505.2,328.9,-0.8,1.8,2470.536,13.28,0.015,309.8
2021-07-14T09:52:03,42.805,6.029,-0.008,-0.018,0.012,101.0,102.0,102.0,13.4,1505.2,327.7,-0.8,1.8,2470.518,13.28,0.019,204.0
2021-07-14T09:55:03,42.805,6.029,-0.01,-0.008,-0.025,101.0,100.0,100.0,13.4,1505.2,328.8,-0.8,1.8,2470.539,13.28,0.012,231.3